Kezdőlap
METAR-TAF:

METAR-TAF

Repülőterek :

Pipestone Municipal Airport

Pipestone, Minnesota, Amerikai Egyesült Államok

földrajzi szélesség: 43-59N, földrajzi hosszúság: 096-19W, magasság: 529 m

Jelenlegi meteorológiai megfigyelések

A jelentés 28 perccel ezelõtt készült, 07:35 UTC
Észak-északkeleti szél 11 kt széllökések: 15 kt
Hőmérséklet 21°C
Páratartalom 73%
Légköri nyomás 1014 hPa
Látótávolság: 16.1 km

METAR: KPQN 100735Z 03011G15KT 10SM 21/16 A2994 RMK AO2

Idő: 03:03 (08:03 UTC)


TAF: hiányzik

Meteorológiai megfigyelések és előrejelzések több, mint 4000 repülőtéren (METAR és TAF jelentéseket).

A térképen piros és sárga pontok jelzik az elérhető meteorológiai állomásokat.

Mozgassa az egeret a pont fölött, hogy megjelenjen az állomás neve.

Azután kattintson az időjárási megfigyelések és előrejelzések megtekintéséhez.

A térkép megváltoztatása: kattintson a fekete keresztel jelölt zöld gombra ráközelítéshez, a vonallal jelölt zöld gombra távolításhoz, vagy a zöld nyilakra a szomszédos térképek eléréséhez.


METAR-TAF: